Location: Proctor
(47.8934°N, 114.3048°W)
Time: 03:44:56
(UTC+00:00)

AO-109 - Pass Details

Date: 06 July 2022
Orbit: 469 x 506 km, 60.7° (Epoch: 11 August)

Event Time Altitude Azimuth Distance (km) Brightness Sun altitude
Exits shadow 10:03:47 20° 196° (SSW) 1,154 ? -12.6°
Maximum altitude 10:06:02 48° 129° (SE) 637 ? -12.4°
Drops below altitude 10° 10:09:39 10° 55° (NE) 1,674 ? -12.1°
Sets 10:11:52 0° 49° (NE) 2,567 ? -11.8°
